Location: B?dimalle
(17.1788°N, 80.5377°E)
Time: 01:24:55
(UTC+00:00)

Hubble Space Telescope - Visible Passes

Search period start: 22 January 2026 00:00
Search period end: 01 February 2026 00:00
Orbit: 479 x 481 km, 28.5° (Epoch: 21 January)

Date Brightness Start Highest point End Pass type
(mag) Time Alt. Az. Time Alt. Az. Time Alt. Az.
22 Jan 1.1 13:03:57 10° W 13:07:36 47° NNW 13:10:42 13° NE visible
23 Jan 3.0 14:15:20 10° NW 14:16:45 16° NW 14:16:45 16° NW visible
24 Jan 2.5 13:45:28 10° NW 13:48:06 18° N 13:48:37 17° N visible
25 Jan 2.6 13:15:35 10° NW 13:18:12 18° N 13:20:28 11° NNE visible
27 Jan 2.8 13:56:41 10° NNW 13:58:11 14° N 13:58:11 14° N visible
28 Jan 2.6 13:26:41 10° NNW 13:28:52 15° N 13:30:00 13° NNE visible
29 Jan 2.7 12:56:41 10° NNW 12:58:52 15° N 13:01:03 10° NE visible
30 Jan 2.4 14:06:00 10° NW 14:07:49 21° NNW 14:07:49 21° NNW visible
31 Jan 1.7 13:35:55 10° NW 13:39:09 27° NNE 13:39:44 25° NNE visible
